• In Latvia
  • List of Countries
  • For 7 days
  • Water Temperature
  • Satellite Maps
  • Weather Map
  • Weather Widgets
  • user-avatar
    Login

    Hourly Weather Ludza

    Today, 20 September, Thursday

    Time Temperature Precipitation Wind Pressure Humidity
    00:00 +16°C° 0 mm 2 mps 748 mmHg 95%
    01:00 +15°C° 0 mm 2 mps 748 mmHg 96%
    02:00 +14°C° 0 mm 2 mps 748 mmHg 97%
    03:00 +14°C° 0 mm 2 mps 749 mmHg 97%
    04:00 +13°C° 0 mm 2 mps 749 mmHg 98%
    05:00 +13°C° 0 mm 2 mps 749 mmHg 98%
    06:00 +13°C° 0 mm 2 mps 749 mmHg 95%
    07:00 +14°C° 0 mm 2 mps 749 mmHg 92%
    08:00 +14°C° 0 mm 3 mps 749 mmHg 89%
    09:00 +17°C° 0 mm 3 mps 749 mmHg 81%
    10:00 +19°C° 0 mm 3 mps 750 mmHg 73%
    11:00 +21°C° 0 mm 3 mps 750 mmHg 64%
    12:00 +22°C° 0 mm 3 mps 750 mmHg 61%
    13:00 +24°C° 0 mm 3 mps 749 mmHg 58%
    14:00 +25°C° 0 mm 3 mps 749 mmHg 55%
    15:00 +24°C° 0 mm 3 mps 749 mmHg 59%
    16:00 +22°C° 0 mm 3 mps 749 mmHg 64%
    17:00 +23°C° 0 mm 2 mps 749 mmHg 69%
    18:00 +20°C° 0 mm 2 mps 749 mmHg 75%
    19:00 +19°C° 0 mm 2 mps 749 mmHg 80%
    20:00 +18°C° 0 mm 2 mps 749 mmHg 86%
    21:00 +17°C° 0 mm 2 mps 749 mmHg 88%
    22:00 +17°C° 0 mm 2 mps 749 mmHg 90%
    23:00 +17°C° 0 mm 2 mps 749 mmHg 93%

    Tomorrow, 21 September, Friday

    Time Temperature Precipitation Wind Pressure Humidity
    00:00 +17°C° 0 mm 2 mps 749 mmHg 94%
    01:00 +16°C° 0 mm 2 mps 749 mmHg 95%
    02:00 +16°C° 0 mm 2 mps 749 mmHg 96%
    03:00 +16°C° 0 mm 2 mps 749 mmHg 96%
    04:00 +16°C° 0 mm 2 mps 749 mmHg 96%
    05:00 +16°C° 0 mm 2 mps 749 mmHg 95%
    06:00 +17°C° 0 mm 2 mps 749 mmHg 92%
    07:00 +18°C° 0 mm 3 mps 749 mmHg 88%
    08:00 +19°C° 0 mm 3 mps 749 mmHg 84%
    09:00 +21°C° 0 mm 3 mps 749 mmHg 77%
    10:00 +22°C° 0 mm 4 mps 749 mmHg 71%
    11:00 +25°C° 0 mm 4 mps 749 mmHg 64%
    12:00 +26°C° 0 mm 4 mps 749 mmHg 61%
    13:00 +27°C° 0 mm 4 mps 748 mmHg 58%
    14:00 +27°C° 0 mm 5 mps 748 mmHg 55%
    15:00 +26°C° 0 mm 4 mps 747 mmHg 59%
    16:00 +26°C° 0 mm 4 mps 747 mmHg 63%
    17:00 +25°C° 0 mm 3 mps 746 mmHg 68%
    18:00 +22°C° 0 mm 4 mps 746 mmHg 69%
    19:00 +21°C° 0 mm 4 mps 746 mmHg 71%
    20:00 +20°C° 0 mm 4 mps 746 mmHg 73%
    21:00 +20°C° 0 mm 5 mps 745 mmHg 71%
    22:00 +19°C° 0 mm 5 mps 744 mmHg 70%
    23:00 +19°C° 0 mm 5 mps 744 mmHg 69%

    Day after tomorrow, 22 September, Saturday

    Time Temperature Precipitation Wind Pressure Humidity
    00:00 +19°C° 0 mm 5 mps 743 mmHg 68%
    01:00 +19°C° 0 mm 5 mps 743 mmHg 68%
    02:00 +19°C° 0 mm 6 mps 742 mmHg 67%
    03:00 +19°C° 0 mm 5 mps 742 mmHg 68%
    04:00 +17°C° 0 mm 5 mps 742 mmHg 69%
    05:00 +17°C° 0 mm 5 mps 742 mmHg 70%
    06:00 +15°C° 0.9 mm 5 mps 742 mmHg 76%
    07:00 +14°C° 0.9 mm 4 mps 743 mmHg 82%
    08:00 +12°C° 0.9 mm 4 mps 743 mmHg 88%
    09:00 +12°C° 0.3 mm 4 mps 743 mmHg 84%
    10:00 +13°C° 0.3 mm 4 mps 743 mmHg 81%
    11:00 +14°C° 0.3 mm 5 mps 744 mmHg 77%
    12:00 +14°C° 0 mm 5 mps 744 mmHg 72%
    13:00 +14°C° 0 mm 5 mps 744 mmHg 68%
    14:00 +15°C° 0 mm 5 mps 744 mmHg 63%
    15:00 +14°C° 0 mm 5 mps 744 mmHg 64%
    16:00 +14°C° 0 mm 4 mps 744 mmHg 65%
    17:00 +13°C° 0 mm 4 mps 744 mmHg 66%
    18:00 +12°C° 0 mm 4 mps 744 mmHg 70%
    19:00 +11°C° 0 mm 3 mps 744 mmHg 74%
    20:00 +10°C° 0 mm 3 mps 744 mmHg 79%
    21:00 +10°C° 0 mm 3 mps 744 mmHg 81%
    22:00 +9°C° 0 mm 3 mps 744 mmHg 82%
    23:00 +9°C° 0 mm 3 mps 744 mmHg 84%

    23 September, Sunday

    Time Temperature Precipitation Wind Pressure Humidity
    00:00 +8°C° 0 mm 3 mps 744 mmHg 86%
    01:00 +8°C° 0 mm 3 mps 744 mmHg 88%
    02:00 +8°C° 0 mm 3 mps 744 mmHg 90%
    03:00 +8°C° 0 mm 3 mps 743 mmHg 89%
    04:00 +7°C° 0 mm 4 mps 743 mmHg 89%
    05:00 +7°C° 0 mm 4 mps 743 mmHg 88%
    06:00 +7°C° 0 mm 4 mps 743 mmHg 85%
    07:00 +8°C° 0 mm 5 mps 743 mmHg 83%
    08:00 +9°C° 0 mm 5 mps 742 mmHg 81%
    09:00 +10°C° 0.1 mm 5 mps 742 mmHg 77%
    10:00 +10°C° 0.1 mm 6 mps 742 mmHg 73%
    11:00 +11°C° 0.1 mm 6 mps 742 mmHg 69%
    12:00 +11°C° 0.3 mm 6 mps 742 mmHg 69%
    13:00 +11°C° 0.3 mm 6 mps 742 mmHg 69%
    14:00 +13°C° 0.3 mm 6 mps 742 mmHg 69%
    15:00 +11°C° 0.3 mm 6 mps 742 mmHg 72%
    16:00 +12°C° 0.3 mm 5 mps 742 mmHg 75%
    17:00 +11°C° 0.3 mm 4 mps 742 mmHg 78%
    18:00 +10°C° 0 mm 4 mps 742 mmHg 82%
    19:00 +8°C° 0 mm 4 mps 742 mmHg 85%
    20:00 +9°C° 0 mm 3 mps 742 mmHg 89%
    21:00 +8°C° 0 mm 3 mps 743 mmHg 90%
    22:00 +8°C° 0 mm 3 mps 743 mmHg 92%
    23:00 +7°C° 0 mm 3 mps 743 mmHg 93%

    24 September, Monday

    Time Temperature Precipitation Wind Pressure Humidity
    00:00 +7°C° 0 mm 2 mps 743 mmHg 95%
    01:00 +6°C° 0 mm 2 mps 742 mmHg 96%
    02:00 +6°C° 0 mm 2 mps 742 mmHg 97%
    03:00 +6°C° 0 mm 2 mps 742 mmHg 97%
    04:00 +6°C° 0 mm 2 mps 741 mmHg 97%
    05:00 +6°C° 0 mm 2 mps 741 mmHg 97%
    06:00 +6°C° 0 mm 2 mps 740 mmHg 93%
    07:00 +7°C° 0 mm 2 mps 740 mmHg 89%
    08:00 +8°C° 0 mm 3 mps 740 mmHg 85%
    09:00 +9°C° 0.1 mm 3 mps 739 mmHg 81%
    10:00 +8°C° 0.1 mm 4 mps 738 mmHg 78%
    11:00 +9°C° 0.1 mm 5 mps 737 mmHg 74%
    12:00 +8°C° 1.4 mm 5 mps 736 mmHg 79%
    13:00 +8°C° 1.4 mm 5 mps 735 mmHg 85%
    14:00 +7°C° 1.4 mm 5 mps 733 mmHg 90%
    15:00 +7°C° 2.6 mm 5 mps 733 mmHg 91%
    16:00 +6°C° 2.6 mm 5 mps 732 mmHg 93%
    17:00 +5°C° 2.6 mm 6 mps 731 mmHg 94%
    18:00 +6°C° 1.6 mm 5 mps 730 mmHg 94%
    19:00 +6°C° 1.6 mm 5 mps 729 mmHg 94%
    20:00 +6°C° 1.6 mm 5 mps 728 mmHg 95%
    21:00 +6°C° 1.9 mm 5 mps 727 mmHg 95%
    22:00 +6°C° 1.9 mm 4 mps 726 mmHg 96%
    23:00 +6°C° 1.9 mm 4 mps 726 mmHg 96%

    25 September, Tuesday

    Time Temperature Precipitation Wind Pressure Humidity
    00:00 +6°C° 1.9 mm 5 mps 726 mmHg 95%
    01:00 +5°C° 1.9 mm 6 mps 726 mmHg 95%
    02:00 +5°C° 1.9 mm 6 mps 726 mmHg 94%
    03:00 +5°C° 1.3 mm 7 mps 726 mmHg 93%
    04:00 +5°C° 1.3 mm 7 mps 727 mmHg 92%
    05:00 +5°C° 1.3 mm 7 mps 727 mmHg 92%
    06:00 +5°C° 0.9 mm 8 mps 728 mmHg 91%
    07:00 +5°C° 0.9 mm 8 mps 729 mmHg 90%
    08:00 +5°C° 0.9 mm 8 mps 730 mmHg 90%
    09:00 +5°C° 0.6 mm 8 mps 731 mmHg 89%
    10:00 +5°C° 0.6 mm 9 mps 732 mmHg 88%
    11:00 +5°C° 0.6 mm 9 mps 733 mmHg 87%
    12:00 +5°C° 0.4 mm 9 mps 734 mmHg 86%
    13:00 +5°C° 0.4 mm 9 mps 735 mmHg 85%
    14:00 +5°C° 0.4 mm 9 mps 736 mmHg 84%
    15:00 +4°C° 0.2 mm 8 mps 737 mmHg 82%
    16:00 +4°C° 0.2 mm 8 mps 738 mmHg 81%
    17:00 +4°C° 0.2 mm 7 mps 739 mmHg 79%
    18:00 +4°C° 0 mm 7 mps 739 mmHg 77%
    19:00 +3°C° 0 mm 6 mps 740 mmHg 75%
    20:00 +3°C° 0 mm 6 mps 741 mmHg 73%
    21:00 +2°C° 0 mm 6 mps 741 mmHg 72%
    22:00 +2°C° 0 mm 6 mps 742 mmHg 70%
    23:00 +2°C° 0 mm 6 mps 742 mmHg 68%
    Show more